SCP
0 0 0 0 0 0 0 0 0 0 0 0 0 0 0 0 0 0 0 0 0 0 0 0 0 0 -0 -0 -0 -0 -0 0 0 0 0 0 0 0 0 0 0 0 0 0
0 0 0 0 0 0 0 0 0 0 0 0 0 0 0 0 0 0 0 0 0 0 0 0 0 0 -0 0 -0 0 0 0 0 0 0 0 0 0 0 0 0 0 0 0
0 0 0 0 0 0 0 0 0 0 0 0 0 0 0 0 0 0 0 0 0 0 0 0 0 0 -0 -0 0 0 0 0 0 0 0 0 0 0 0 0 0 0 0 0
0 0 0 0 0 0 0 0 0 0 0 0 0 0 0 0 0 0 0 0 0 0 0 0 0 0 -0 -0 0 0 0 0 0 0 0 0 0 0 0 0 0 0 0 0
0 0 0 0 0 0 0 0 0 0 0 0 0 0 0 0 0 0 0 0 0 0 0 0 0 0 0 0 0 0 0 0 0 0 -0 0 0 0 0 0 0 0 0 0
0 0 0 0 0 0 0 0 0 0 0 0 0 0 0 0 0 0 0 0 0 0 0 0 0 0 0 0 0 0 0 0 0 0 -0 -0 0 0 0 0 0 0 0 0
0 0 0 0 0 0 0 0 0 0 0 0 0 0 0 0 0 0 0 0 0 0 0 0 0 0 0 -0 0 0 0 0 0 0 -0 -0 -0 0 0 0 0 0 0 0
0 0 0 0 0 0 0 0 0 0 0 0 0 0 0 0 0 0 0 0 0 0 0 0 0 0 0 0 0 0 0 0 0 -0 -0 -0 -0 0 0 0 0 0 0 0
0 0 0 0 0 0 0 0 0 0 0 0 0 0 0 0 0 0 0 0 0 0 0 0 0 0 0 0 0 0 0 0 0 0 0 -0 -0 -0 -0 -0 0 -0 0 0
0 0 0 0 0 0 0 0 0 0 0 0 0 0 0 0 0 0 0 0 0 0 0 0 0 0 0 0 0 0 0 0 0 0 0 0 0 -0 -0 -0 0 -0 0 0
0 0 0 0 0 0 0 0 0 0 0 0 0 0 0 0 0 0 0 0 0 0 0 0 0 0 0 0 0 0 -0 -0 0 0 -0 0 -0 0 0 0 0 0 0 -0
0 0 0 0 0 0 0 0 0 0 0 0 0 0 0 0 0 0 0 0 0 0 0 0 0 0 0 0 0 0 0 -0 -0 0 0 0 -0 -0 -0 -0 0 -0 -0 -0
0 0 0 0 0 0 0 0 0 0 0 0 0 0 0 0 0 0 0 0 0 0 0 0 0 0 0 0 0 0 0 0 -0 -0 -0 0 0 0 0 0 -0 -0 -0 0
0 0 0 0 0 0 0 0 0 0 0 0 0 0 0 0 0 0 0 0 0 0 0 0 0 0 0 0 0 0 0 0 0 0 -0 -0 -0 -0 -0 -0 -0 -0 -0 -0
0 0 0 0 0 0 0 0 0 0 0 0 0 0 0 0 0 0 0 0 0 0 0 0 0 0 0 0 0 0 0 0 0 0 0 0 0 0 0 -0 -0 0 0 0
0 0 0 0 0 0 0 0 0 0 0 0 0 0 0 0 0 0 0 0 0 0 0 0 0 0 0 0 0 0 0 0 0 0 0 0 0 0 0 0 0 0 0 0
0 0 0 0 0 0 0 0 0 0 0 0 0 0 0 0 0 0 0 0 -0 -0 -0 -0 0 -0 0 0 0 0 0 0 0 0 0 0 0 0 0 0 0 0 0 0
0 0 0 0 0 0 0 0 0 0 0 0 0 0 0 0 0 0 0 0 0 -0 -0 0 0 0 -0 0 0 0 0 0 0 0 0 0 0 0 0 0 0 0 0 0
0 0 0 0 0 0 0 0 0 0 0 0 0 0 0 0 0 0 0 0 0 0 0 0 0 0 0 0 -0 0 0 0 0 0 0 0 0 0 0 0 0 0 0 0
0 0 0 0 0 0 0 0 0 0 0 0 0 0 0 0 0 0 0 0 0 0 0 0 0 0 -0 0 0 0 0 0 0 0 0 0 0 0 0 0 0 0 0 0
0 0 0 0 0 0 0 0 0 0 0 0 0 0 0 0 0 0 0 0 0 0 0 0 0 -0 -0 0 0 0 0 0 0 0 0 0 0 0 0 0 0 0 0 0
0 0 0 0 0 0 0 0 0 0 0 0 0 0 0 0 0 0 0 0 0 0 0 0 0 0 -0 0 0 0 0 0 0 0 0 0 0 0 0 0 0 0 0 0
0 0 0 0 0 0 0 0 0 0 0 -0 -0 0 0 0 0 0 0 0 0 0 0 0 0 0 -0 -0 0 0 0 0 0 0 0 0 0 0 0 0 0 0 0 0
0 0 0 0 0 0 0 0 0 0 0 0 -0 0 0 0 0 0 0 0 0 0 0 0 0 0 -0 -0 -0 -0 0 0 0 0 0 0 0 0 0 0 0 0 0 0
0 0 0 0 0 0 0 0 0 0 0 0 0 0 0 0 0 0 0 0 0 0 0 0 0 -0 -0 -0 -0 -0 0 0 0 0 0 0 0 0 0 0 0 0 0 0
0 0 0 0 0 0 0 0 0 0 0 0 0 0 0 0 0 0 0 0 0 0 0 0 0 0 -0 -0 -0 -0 0 0 0 0 0 0 0 0 0 0 0 0 0 0
Wind_Speed_500mb
10 10 6 8 4 6 12 8 7 1 2 1 7 5 10 10 22 33 41 48 58 66 72 77 86 88 94 95 92 84 75 61 52 51 56 56 60 58 59 67 70 66 77 76
12 5 2 4 7 10 8 8 2 2 2 1 2 6 11 9 11 24 33 47 58 69 77 82 87 89 90 88 85 79 67 59 54 56 53 49 53 50 50 50 63 60 74 70
10 4 4 7 6 8 6 7 5 1 9 1 4 6 9 4 8 18 33 44 55 65 73 75 83 86 86 82 77 68 61 60 60 51 49 39 38 42 41 36 45 56 55 73
10 0 7 8 6 4 5 5 8 6 7 5 6 8 8 6 2 12 40 49 50 59 64 65 75 82 82 78 65 66 59 53 52 40 23 22 22 23 14 20 26 37 52 54
6 8 8 6 5 2 6 5 6 4 6 7 1 5 8 3 3 9 29 37 45 50 53 60 65 75 80 78 71 63 53 57 43 33 26 19 18 18 7 10 26 25 35 37
5 3 4 6 7 7 11 9 10 7 4 4 5 8 8 6 8 3 14 27 36 45 51 54 55 65 84 83 78 67 59 57 57 47 38 30 39 44 28 18 17 13 11 24
8 1 1 7 11 6 5 9 4 9 4 8 4 3 10 10 6 6 7 18 27 38 50 51 58 61 69 86 98 92 83 70 61 54 48 44 36 32 32 36 36 37 37 39
11 7 12 6 5 11 9 8 8 12 5 5 2 10 6 8 16 12 7 11 19 34 44 49 52 58 62 75 85 99 102 101 98 93 89 82 73 75 74 69 59 64 55 54
9 1 2 2 2 4 9 8 5 11 2 5 6 4 3 9 9 11 5 9 19 29 39 46 46 55 61 64 76 89 97 102 107 109 110 100 92 93 91 82 74 71 75 66
11 7 2 2 3 1 5 5 6 3 3 7 8 9 8 21 17 13 10 9 16 19 29 39 46 49 53 57 62 70 80 88 95 103 98 99 98 94 87 79 71 73 66 60
9 6 1 4 13 15 7 5 6 3 7 7 3 9 7 24 18 20 21 14 16 14 23 30 36 42 46 53 61 71 80 84 85 84 84 84 85 85 82 77 68 66 65 60
9 8 8 12 4 5 4 11 11 8 10 5 2 10 2 15 31 36 29 21 18 15 17 20 28 33 41 48 54 61 64 68 67 65 65 65 62 61 62 57 55 51 51 47
13 4 4 7 5 4 10 11 8 6 4 12 10 7 5 20 26 31 33 26 22 19 15 13 18 23 30 37 42 47 50 54 55 55 56 57 61 57 54 53 49 45 42 39
6 5 8 11 7 9 9 11 16 10 6 8 11 9 12 18 20 33 35 31 28 24 19 16 15 19 24 29 32 35 37 39 42 44 47 51 54 51 48 44 39 37 36 35
6 9 5 6 6 6 8 9 20 29 24 15 4 19 27 35 29 54 49 39 35 31 27 22 17 16 18 23 26 28 31 34 38 39 40 43 42 41 39 37 35 33 32 32
2 5 5 6 3 7 10 16 19 32 31 19 16 15 11 44 40 46 56 51 46 40 34 27 22 20 17 15 17 19 23 27 31 35 38 37 35 36 36 35 35 33 32 30
12 10 7 9 7 7 14 30 36 22 18 38 23 21 22 18 47 63 66 62 57 50 43 36 28 21 16 11 10 10 16 23 28 30 31 32 31 30 30 31 30 30 30 31
12 10 6 5 5 10 8 2 20 37 27 31 11 17 42 54 77 75 71 70 62 55 48 40 32 25 17 11 5 9 12 13 16 20 24 29 35 39 42 43 42 40 36 34
5 9 4 8 9 17 22 11 15 17 21 42 43 20 39 43 47 40 72 66 63 59 50 43 36 27 18 8 3 6 6 11 16 20 24 28 31 32 32 33 36 38 39 37
7 9 8 7 9 15 11 3 12 11 15 21 60 39 48 58 23 15 82 71 66 58 53 48 39 28 17 14 10 8 7 13 20 26 29 32 34 35 37 37 36 36 36 37
7 4 13 6 9 18 20 17 16 11 12 3 51 57 74 37 19 54 85 75 66 64 58 49 39 28 25 21 14 11 12 16 20 25 30 33 38 41 43 45 44 43 42 40
20 19 9 7 4 24 27 16 18 9 3 10 34 66 72 50 36 57 92 83 78 73 64 53 42 37 32 25 18 14 11 11 17 23 27 33 37 39 39 41 42 42 41 40
10 16 13 23 17 9 49 17 41 4 5 8 35 61 74 61 54 76 95 88 83 75 66 55 46 43 37 28 20 15 9 6 12 19 26 31 34 37 41 43 42 42 40 39
10 18 7 7 17 34 37 56 26 38 15 10 29 54 77 66 65 87 93 90 85 76 68 60 57 49 41 31 22 14 5 2 10 17 23 29 34 38 41 44 45 44 41 34
13 30 16 10 20 15 37 62 60 46 36 20 28 51 77 70 74 88 93 90 84 77 71 68 62 52 41 32 23 14 6 3 9 15 21 28 33 38 43 44 42 40 37 31
22 15 18 16 24 30 36 29 64 60 49 35 35 56 72 71 74 86 89 87 84 80 79 72 63 52 42 32 24 16 8 1 7 14 21 27 33 37 40 40 40 38 36 31
Wind_Direction_500mb
26 77 172 164 104 111 108 105 134 159 172 100 223 182 165 97 51 27 17 9 5 1 356 353 358 353 347 348 346 341 336 334 319 309 306 295 278 263 250 240 234 239 234 235
30 88 144 86 59 91 94 114 167 299 41 136 176 236 154 127 72 38 15 11 7 360 356 359 360 355 355 349 345 344 339 334 323 304 306 295 289 272 254 238 238 241 235 237
132 144 117 102 65 94 45 135 168 187 336 355 350 287 164 179 120 27 24 16 10 5 3 4 2 0 360 356 352 347 348 341 335 327 305 287 282 274 250 233 237 240 250 232
89 84 117 89 92 94 139 110 107 90 57 239 60 274 230 199 349 19 17 14 7 4 9 7 10 9 8 4 2 5 4 5 348 346 331 304 289 277 239 239 254 253 260 245
193 136 124 113 123 67 140 106 97 99 97 40 199 78 257 352 312 0 11 7 7 9 14 13 16 19 21 18 17 12 15 27 19 19 24 24 62 60 26 281 249 259 251 263
91 65 62 119 81 70 134 81 47 47 82 4 208 136 268 203 202 348 3 11 7 13 18 21 24 29 34 32 30 24 26 42 57 56 58 63 69 96 106 115 126 121 234 236
11 2 7 136 95 45 91 92 348 347 6 227 133 52 253 177 159 124 26 15 16 19 23 26 31 34 37 38 40 39 41 52 62 73 75 82 86 93 94 97 92 97 103 93
145 290 174 183 190 163 175 162 159 217 215 282 308 238 272 156 138 126 81 41 32 29 34 31 34 41 49 48 47 50 48 53 70 74 76 77 81 78 78 78 78 83 79 77
130 92 48 94 113 123 172 188 141 108 31 42 213 278 246 151 157 150 141 68 50 40 38 37 40 44 52 55 58 57 55 53 61 68 71 75 73 75 78 77 76 70 72 71
190 88 315 122 96 317 151 160 90 21 162 264 255 258 228 191 195 185 184 110 79 63 53 49 48 54 54 55 59 63 64 62 61 59 64 67 68 68 68 71 69 70 65 64
139 107 187 108 202 181 153 198 197 140 177 188 268 255 222 182 172 180 176 148 118 90 71 61 59 59 59 60 60 64 69 71 70 74 73 72 72 71 69 69 67 64 61 62
180 115 176 195 224 183 234 203 177 143 205 228 140 273 120 146 167 167 170 159 141 128 100 81 74 68 66 66 64 64 66 67 67 68 68 68 70 72 70 68 68 64 62 63
179 208 66 354 12 22 212 199 200 121 101 200 153 244 138 147 162 178 169 169 159 157 141 115 97 83 75 75 70 67 61 57 55 52 51 53 52 54 54 55 53 53 53 54
120 155 193 194 153 124 203 194 186 174 159 172 227 161 202 193 184 185 187 180 170 170 171 155 126 101 90 82 79 73 63 54 49 44 43 41 39 40 39 39 38 33 33 33
148 191 180 241 177 185 215 195 192 208 210 190 213 205 196 196 192 191 187 182 177 179 180 171 153 129 105 91 79 68 58 45 36 34 33 31 26 22 20 20 23 21 18 20
232 168 102 303 293 243 259 229 206 221 233 256 255 258 207 192 185 186 188 187 185 185 181 176 168 151 133 106 77 55 43 30 16 8 9 12 14 17 17 17 15 11 11 8
154 134 100 268 342 323 296 223 202 206 209 215 210 224 147 169 182 190 190 192 189 187 183 181 177 172 157 129 84 38 20 8 359 7 14 18 21 21 20 19 13 8 3 359
143 114 97 202 1 275 246 207 221 222 227 210 209 171 176 186 195 194 196 190 190 188 184 182 178 176 168 155 104 23 15 21 23 17 19 15 13 12 11 8 5 2 358 354
172 124 110 161 206 305 296 204 178 177 253 217 221 178 186 169 165 191 199 196 189 188 185 180 177 175 174 170 120 87 36 39 34 34 32 28 22 16 10 4 360 354 350 347
98 51 131 117 178 228 246 84 144 115 275 208 204 185 154 149 183 195 194 192 190 187 184 181 175 172 174 160 161 114 72 54 49 43 36 30 24 18 14 8 1 354 345 339
120 44 192 178 233 282 245 149 145 122 249 199 195 178 164 187 197 190 184 186 188 184 182 179 176 171 172 169 154 117 76 54 47 41 34 26 19 15 10 5 359 353 346 340
164 168 172 106 183 267 179 121 177 209 227 267 198 183 183 180 170 182 179 180 182 180 178 179 178 175 173 167 153 122 89 59 44 35 27 21 14 7 3 0 356 351 345 339
195 188 179 189 206 240 184 203 204 181 263 257 194 190 181 179 175 175 175 177 180 180 179 178 179 177 173 171 157 136 121 66 39 26 20 11 3 360 358 356 354 351 349 346
235 178 208 129 230 239 232 224 236 228 250 244 210 191 185 178 175 175 174 176 178 178 177 177 177 179 178 170 163 159 156 13 19 13 9 0 357 357 357 355 354 352 351 355
183 153 169 264 264 290 256 236 237 226 231 241 205 200 189 184 177 177 176 178 178 176 179 176 176 180 178 172 171 176 188 306 2 2 3 354 354 356 356 355 354 353 353 353
183 172 186 215 201 202 233 248 234 218 218 211 202 193 191 189 182 180 179 179 178 178 177 175 177 180 180 175 177 179 179 17 355 1 356 352 353 357 358 357 353 355 355 352
Wind_Speed_850mb
10 10 6 8 4 6 12 8 7 1 2 1 7 5 10 10 22 33 41 48 58 66 72 77 86 88 94 95 92 84 75 61 52 51 56 56 60 58 59 67 70 66 77 76
12 5 2 4 7 10 8 8 2 2 2 1 2 6 11 9 11 24 33 47 58 69 77 82 87 89 90 88 85 79 67 59 54 56 53 49 53 50 50 50 63 60 74 70
10 4 4 7 6 8 6 7 5 1 9 1 4 6 9 4 8 18 33 44 55 65 73 75 83 86 86 82 77 68 61 60 60 51 49 39 38 42 41 36 45 56 55 73
10 0 7 8 6 4 5 5 8 6 7 5 6 8 8 6 2 12 40 49 50 59 64 65 75 82 82 78 65 66 59 53 52 40 23 22 22 23 14 20 26 37 52 54
6 8 8 6 5 2 6 5 6 4 6 7 1 5 8 3 3 9 29 37 45 50 53 60 65 75 80 78 71 63 53 57 43 33 26 19 18 18 7 10 26 25 35 37
5 3 4 6 7 7 11 9 10 7 4 4 5 8 8 6 8 3 14 27 36 45 51 54 55 65 84 83 78 67 59 57 57 47 38 30 39 44 28 18 17 13 11 24
8 1 1 7 11 6 5 9 4 9 4 8 4 3 10 10 6 6 7 18 27 38 50 51 58 61 69 86 98 92 83 70 61 54 48 44 36 32 32 36 36 37 37 39
11 7 12 6 5 11 9 8 8 12 5 5 2 10 6 8 16 12 7 11 19 34 44 49 52 58 62 75 85 99 102 101 98 93 89 82 73 75 74 69 59 64 55 54
9 1 2 2 2 4 9 8 5 11 2 5 6 4 3 9 9 11 5 9 19 29 39 46 46 55 61 64 76 89 97 102 107 109 110 100 92 93 91 82 74 71 75 66
11 7 2 2 3 1 5 5 6 3 3 7 8 9 8 21 17 13 10 9 16 19 29 39 46 49 53 57 62 70 80 88 95 103 98 99 98 94 87 79 71 73 66 60
9 6 1 4 13 15 7 5 6 3 7 7 3 9 7 24 18 20 21 14 16 14 23 30 36 42 46 53 61 71 80 84 85 84 84 84 85 85 82 77 68 66 65 60
9 8 8 12 4 5 4 11 11 8 10 5 2 10 2 15 31 36 29 21 18 15 17 20 28 33 41 48 54 61 64 68 67 65 65 65 62 61 62 57 55 51 51 47
13 4 4 7 5 4 10 11 8 6 4 12 10 7 5 20 26 31 33 26 22 19 15 13 18 23 30 37 42 47 50 54 55 55 56 57 61 57 54 53 49 45 42 39
6 5 8 11 7 9 9 11 16 10 6 8 11 9 12 18 20 33 35 31 28 24 19 16 15 19 24 29 32 35 37 39 42 44 47 51 54 51 48 44 39 37 36 35
6 9 5 6 6 6 8 9 20 29 24 15 4 19 27 35 29 54 49 39 35 31 27 22 17 16 18 23 26 28 31 34 38 39 40 43 42 41 39 37 35 33 32 32
2 5 5 6 3 7 10 16 19 32 31 19 16 15 11 44 40 46 56 51 46 40 34 27 22 20 17 15 17 19 23 27 31 35 38 37 35 36 36 35 35 33 32 30
12 10 7 9 7 7 14 30 36 22 18 38 23 21 22 18 47 63 66 62 57 50 43 36 28 21 16 11 10 10 16 23 28 30 31 32 31 30 30 31 30 30 30 31
12 10 6 5 5 10 8 2 20 37 27 31 11 17 42 54 77 75 71 70 62 55 48 40 32 25 17 11 5 9 12 13 16 20 24 29 35 39 42 43 42 40 36 34
5 9 4 8 9 17 22 11 15 17 21 42 43 20 39 43 47 40 72 66 63 59 50 43 36 27 18 8 3 6 6 11 16 20 24 28 31 32 32 33 36 38 39 37
7 9 8 7 9 15 11 3 12 11 15 21 60 39 48 58 23 15 82 71 66 58 53 48 39 28 17 14 10 8 7 13 20 26 29 32 34 35 37 37 36 36 36 37
7 4 13 6 9 18 20 17 16 11 12 3 51 57 74 37 19 54 85 75 66 64 58 49 39 28 25 21 14 11 12 16 20 25 30 33 38 41 43 45 44 43 42 40
20 19 9 7 4 24 27 16 18 9 3 10 34 66 72 50 36 57 92 83 78 73 64 53 42 37 32 25 18 14 11 11 17 23 27 33 37 39 39 41 42 42 41 40
10 16 13 23 17 9 49 17 41 4 5 8 35 61 74 61 54 76 95 88 83 75 66 55 46 43 37 28 20 15 9 6 12 19 26 31 34 37 41 43 42 42 40 39
10 18 7 7 17 34 37 56 26 38 15 10 29 54 77 66 65 87 93 90 85 76 68 60 57 49 41 31 22 14 5 2 10 17 23 29 34 38 41 44 45 44 41 34
13 30 16 10 20 15 37 62 60 46 36 20 28 51 77 70 74 88 93 90 84 77 71 68 62 52 41 32 23 14 6 3 9 15 21 28 33 38 43 44 42 40 37 31
22 15 18 16 24 30 36 29 64 60 49 35 35 56 72 71 74 86 89 87 84 80 79 72 63 52 42 32 24 16 8 1 7 14 21 27 33 37 40 40 40 38 36 31
Wind_Direction_850mb
26 77 172 164 104 111 108 105 134 159 172 100 223 182 165 97 51 27 17 9 5 1 356 353 358 353 347 348 346 341 336 334 319 309 306 295 278 263 250 240 234 239 234 235
30 88 144 86 59 91 94 114 167 299 41 136 176 236 154 127 72 38 15 11 7 360 356 359 360 355 355 349 345 344 339 334 323 304 306 295 289 272 254 238 238 241 235 237
132 144 117 102 65 94 45 135 168 187 336 355 350 287 164 179 120 27 24 16 10 5 3 4 2 0 360 356 352 347 348 341 335 327 305 287 282 274 250 233 237 240 250 232
89 84 117 89 92 94 139 110 107 90 57 239 60 274 230 199 349 19 17 14 7 4 9 7 10 9 8 4 2 5 4 5 348 346 331 304 289 277 239 239 254 253 260 245
193 136 124 113 123 67 140 106 97 99 97 40 199 78 257 352 312 0 11 7 7 9 14 13 16 19 21 18 17 12 15 27 19 19 24 24 62 60 26 281 249 259 251 263
91 65 62 119 81 70 134 81 47 47 82 4 208 136 268 203 202 348 3 11 7 13 18 21 24 29 34 32 30 24 26 42 57 56 58 63 69 96 106 115 126 121 234 236
11 2 7 136 95 45 91 92 348 347 6 227 133 52 253 177 159 124 26 15 16 19 23 26 31 34 37 38 40 39 41 52 62 73 75 82 86 93 94 97 92 97 103 93
145 290 174 183 190 163 175 162 159 217 215 282 308 238 272 156 138 126 81 41 32 29 34 31 34 41 49 48 47 50 48 53 70 74 76 77 81 78 78 78 78 83 79 77
130 92 48 94 113 123 172 188 141 108 31 42 213 278 246 151 157 150 141 68 50 40 38 37 40 44 52 55 58 57 55 53 61 68 71 75 73 75 78 77 76 70 72 71
190 88 315 122 96 317 151 160 90 21 162 264 255 258 228 191 195 185 184 110 79 63 53 49 48 54 54 55 59 63 64 62 61 59 64 67 68 68 68 71 69 70 65 64
139 107 187 108 202 181 153 198 197 140 177 188 268 255 222 182 172 180 176 148 118 90 71 61 59 59 59 60 60 64 69 71 70 74 73 72 72 71 69 69 67 64 61 62
180 115 176 195 224 183 234 203 177 143 205 228 140 273 120 146 167 167 170 159 141 128 100 81 74 68 66 66 64 64 66 67 67 68 68 68 70 72 70 68 68 64 62 63
179 208 66 354 12 22 212 199 200 121 101 200 153 244 138 147 162 178 169 169 159 157 141 115 97 83 75 75 70 67 61 57 55 52 51 53 52 54 54 55 53 53 53 54
120 155 193 194 153 124 203 194 186 174 159 172 227 161 202 193 184 185 187 180 170 170 171 155 126 101 90 82 79 73 63 54 49 44 43 41 39 40 39 39 38 33 33 33
148 191 180 241 177 185 215 195 192 208 210 190 213 205 196 196 192 191 187 182 177 179 180 171 153 129 105 91 79 68 58 45 36 34 33 31 26 22 20 20 23 21 18 20
232 168 102 303 293 243 259 229 206 221 233 256 255 258 207 192 185 186 188 187 185 185 181 176 168 151 133 106 77 55 43 30 16 8 9 12 14 17 17 17 15 11 11 8
154 134 100 268 342 323 296 223 202 206 209 215 210 224 147 169 182 190 190 192 189 187 183 181 177 172 157 129 84 38 20 8 359 7 14 18 21 21 20 19 13 8 3 359
143 114 97 202 1 275 246 207 221 222 227 210 209 171 176 186 195 194 196 190 190 188 184 182 178 176 168 155 104 23 15 21 23 17 19 15 13 12 11 8 5 2 358 354
172 124 110 161 206 305 296 204 178 177 253 217 221 178 186 169 165 191 199 196 189 188 185 180 177 175 174 170 120 87 36 39 34 34 32 28 22 16 10 4 360 354 350 347
98 51 131 117 178 228 246 84 144 115 275 208 204 185 154 149 183 195 194 192 190 187 184 181 175 172 174 160 161 114 72 54 49 43 36 30 24 18 14 8 1 354 345 339
120 44 192 178 233 282 245 149 145 122 249 199 195 178 164 187 197 190 184 186 188 184 182 179 176 171 172 169 154 117 76 54 47 41 34 26 19 15 10 5 359 353 346 340
164 168 172 106 183 267 179 121 177 209 227 267 198 183 183 180 170 182 179 180 182 180 178 179 178 175 173 167 153 122 89 59 44 35 27 21 14 7 3 0 356 351 345 339
195 188 179 189 206 240 184 203 204 181 263 257 194 190 181 179 175 175 175 177 180 180 179 178 179 177 173 171 157 136 121 66 39 26 20 11 3 360 358 356 354 351 349 346
235 178 208 129 230 239 232 224 236 228 250 244 210 191 185 178 175 175 174 176 178 178 177 177 177 179 178 170 163 159 156 13 19 13 9 0 357 357 357 355 354 352 351 355
183 153 169 264 264 290 256 236 237 226 231 241 205 200 189 184 177 177 176 178 178 176 179 176 176 180 178 172 171 176 188 306 2 2 3 354 354 356 356 355 354 353 353 353
183 172 186 215 201 202 233 248 234 218 218 211 202 193 191 189 182 180 179 179 178 178 177 175 177 180 180 175 177 179 179 17 355 1 356 352 353 357 358 357 353 355 355 352